Regional Weather Roundup
Issued by NWS

Home | Current Version | Previous Version | Graphics & Text | Print | Product List | Glossary On
Versions: 1 2 3 4 5 6 7 8 9 10 11 12 13 14 15 16 17 18 19 20 21 22 23 24 25 26 27 28 29 30 31 32 33 34 35 36 37 38 39 40 41 42 43 44 45 46 47 48 49 50
000
ASUS43 KFSD 250510
RWRSD

WEATHER ROUNDUP FOR SOUTH DAKOTA
NATIONAL WEATHER SERVICE SIOUX FALLS SD
1200 AM CDT FRI MAY 25 2018

NOTE: "FAIR" INDICATES FEW OR NO CLOUDS BELOW 12,000 FEET WITH NO
SIGNIFICANT WEATHER AND/OR OBSTRUCTIONS TO VISIBILITY.


SDZ001>005-009-010-012>017-250600-
NORTHWEST AND NORTH CENTRAL SOUTH DAKOTA

CITY           SKY/WX    TMP DP  RH WIND       PRES   REMARKS
BUFFALO          N/A     64  49  57 W7        29.83S
FAITH            N/A     65  59  81 SW7       29.88S
MOBRIDGE       CLEAR     65  58  78 CALM      29.81R
$$

SDZ012>016-024>037-041>051-057-063-072>074-250600-
SOUTHWEST AND SOUTH CENTRAL SOUTH DAKOTA

CITY           SKY/WX    TMP DP  RH WIND       PRES   REMARKS
RAPID CTY ARPT MOCLDY    60  54  80 CALM      29.93S
PIERRE         PTCLDY    68  58  70 S5        29.84R
CUSTER         CLEAR     55  44  66 CALM      30.07R
ELLSWORTH AFB  PTCLDY    67  56  67 SW3       29.93R
PHILIP         CLEAR     66  58  75 CALM      29.88R
PINE RIDGE     CLEAR     59  56  89 CALM      29.95S
SPEARFISH      FAIR      61  50  67 SW7       29.98S
WINNER         FAIR      69  56  62 SW8       29.87F
$$

SDZ004>011-016>023-039-040-250600-
NORTHEAST SOUTH DAKOTA

CITY           SKY/WX    TMP DP  RH WIND       PRES   REMARKS
ABERDEEN       MOCLDY    64  56  75 W6        29.80R
WATERTOWN      CLEAR     68  63  84 SE8       29.84R
BROOKINGS      CLEAR     67  62  84 SE8       29.87S
SISSETON         N/A     74  66  76 SW10      29.78S
$$

SDZ017-020-022-023-036>040-048>070-250600-
SOUTHEAST SOUTH DAKOTA

CITY           SKY/WX    TMP DP  RH WIND       PRES   REMARKS
SIOUX FALLS    MOCLDY    65  62  90 CALM      29.87S
HURON          CLOUDY    69  64  84 S6        29.82S
CHAMBERLAIN    CLOUDY    69  61  75 W5        29.85F
MITCHELL       MOCLDY    66  61  84 E5        29.84S
YANKTON        MOCLDY    70  61  73 CALM      29.85F
$$

ABBREVIATIONS USED IN REMARKS
   TC - TEMPERATURE IN CELSIUS
  WCI - WIND CHILL INDEX
   HX - HEAT INDEX
  VSB - VISIBILITY




USA.gov is the U.S. government's official web portal to all federal, state and local government web resources and services.